sat.trackr.live / text

‹ back to catalog

STARLINK-32808

NORAD 62863 · 2025-022K

PAYLOAD ACTIVE UNKNOWN

§ Identity

Operator
Country
US
Launch date
2025-02-01
Launch site
AFWTR
Launch vehicle
Mass (kg)
RCS (m²)

Purposes: comms

External: N2YO · Heavens-Above · Gunter

§ Orbital elements

Epoch: 2026-09-21T09:05:25.995840Z

Period
93.85 min
Inclination
53.1594°
Eccentricity
0.0001321
Mean motion
15.34406650 rev/d
Perigee alt
461.8 km
Apogee alt
463.6 km
Semi-major
6,840.8 km
B*
6.5733e-4
RAAN
297.6341°
Arg perigee
63.1903°
Mean anomaly
296.9235°
Rev number
9,190

§ Raw data

STARLINK-328081 62863U 25022K   26264.37877310  .00021902  00000+0  65733-3 0  99922 62863  53.1594 297.6341 0001321  63.1903 296.9235 15.34406650 91904

JSON: /api/v1/satellites/62863 · /tle

For live sub-satellite position, see the globe view (requires WebGL).

§ Visibility from observer

Set your observer location to see the next 7 days of passes ≥ 10°. The values pass through the URL so the page stays shareable.

No JS? Fill the form by hand. The geolocation button needs JavaScript.